Regional Weather Roundup
Issued by NWS

Home | Current Version | Previous Version | Text Only | Print | Product List | Glossary Off
Versions: 1 2 3 4 5 6 7 8 9 10 11 12 13 14 15 16 17 18 19 20 21 22 23 24 25 26 27 28 29 30 31 32 33 34 35 36 37 38 39 40 41 42 43 44 45 46 47 48 49 50

435
ASUS43 KIND 280509
RWRIN

WEATHER ROUNDUP FOR INDIANA
NATIONAL WEATHER SERVICE INDIANAPOLIS IN
100 AM EDT SUN AUG 28 2016

NOTE: "FAIR" INDICATES FEW OR NO CLOUDS BELOW 12,000 FEET WITH NO
SIGNIFICANT WEATHER AND/OR OBSTRUCTIONS TO VISIBILITY.

* - STATION DOES NOT REPORT WEATHER SUCH AS PRECIPITATION OR FOG.

+ - STATION NOT QUALITY CONTROLLED BY THE NATIONAL WEATHER SERVICE.
    USE DATA WITH CAUTION...ESPECIALLY DEWPOINT AND RELATIVE
    HUMIDITY OBSERVATIONS.

INZ001>003-010>013-019-020-280600-
NORTHWEST INDIANA

CITY           SKY/WX    TMP DP  RH WIND       PRES   REMARKS
GARY /AIRPORT/ CLOUDY    77  76  97 CALM      30.10S
KNOX *+        PTCLDY    72  59  64 CALM      30.10R
LA PORTE +     CLOUDY   N/A N/A N/A CALM      30.12R
MICHIGAN CITY+ CLOUDY    73  73 100 MISG      30.10S
MONTICELLO +   CLEAR     73  69  87 CALM      30.11R
RENSSELAER +   PTCLDY    72  72 100 CALM      30.11S
VALPARAISO     MOCLDY    75  72  90 S3        30.12R

$$

LMZ046-743>745-280600-
SOUTHERN LAKE MICHIGAN

STATION/POSITION TIME  TEMP    WIND        PRES    WAVE
                       AIR SEA DIR/SP/G            HT
                 (UTC) (F)     (DEG/KT/KT) (MB)    (FT)
BURNS HARBOR     0401   78     190/  6/ 11 1019.3R
MICHIGAN CITY    0400   78     170/ 10/ 11   N/A
5NW MICH CITY    0500   76 76  200/  4/  6   N/A     1

$$

INZ004-005-014>016-021>024-280600-
NORTH CENTRAL INDIANA

CITY           SKY/WX    TMP DP  RH WIND       PRES   REMARKS
GOSHEN         CLEAR     73  69  87 S5        30.12R
LOGANSPORT +   CLOUDY    70  68  94 SE5       30.13R
PERU/GRISSOM   PTCLDY    73  72  99 S2        30.12R
ROCHESTER +    CLEAR     77  75  94 CALM      30.13R
SOUTH BEND     PTCLDY    74  72  93 SW3       30.11S
WARSAW +       PTCLDY    73  73 100 CALM      30.12F

$$

INZ006>009-017-018-025>027-280600-
NORTHEAST INDIANA

CITY           SKY/WX    TMP DP  RH WIND       PRES   REMARKS
ANGOLA *+      CLEAR     70  63  78 CALM      30.14R
AUBURN +       PTCLDY    72  68  88 CALM      30.14R
FORT WAYNE     PTCLDY    71  69  93 S3        30.14R
HUNTINGTON +   PTCLDY    70  69  96 CALM      30.14R

$$

INZ028-029-035-036-043>045-051>053-280600-
WEST CENTRAL INDIANA

CITY           SKY/WX    TMP DP  RH WIND       PRES   REMARKS
CRAWFORDSVL +  PTCLDY    71  71 100 SE5       30.13R
GREENCASTLE +  PTCLDY    72  72 100 CALM      30.14R
LAFAYETTE      CLOUDY    72  71  97 NW3       30.11R
TERRE HAUTE    MOCLDY    75  71  87 SE5       30.12R

$$

INZ030>032-037>040-046>048-054>057-064-065-280600-
CENTRAL INDIANA

CITY           SKY/WX    TMP DP  RH WIND       PRES   REMARKS
INDIANAPOLIS   CLOUDY    76  73  91 S8        30.13R
-EAGLE CREEK   CLOUDY    76  73  91 CALM      30.13R
KOKOMO *+      PTCLDY    72  70  94 S3        30.12S
MARION +       PTCLDY    70  68  94 CALM      30.14R
MT COMFORT *+  CLEAR     73  72  94 SE5       30.15R
SHELBYVILLE    CLEAR     75  71  87 S3        30.14R
ZIONSVILLE +   PTCLDY    69  69  98 S3        30.14S

$$

INZ033-034-041-042-049-050-058-059-280600-
EAST CENTRAL INDIANA

CITY           SKY/WX    TMP DP  RH WIND       PRES   REMARKS
MUNCIE         PTCLDY    75  71  87 S5        30.14S

$$

INZ060-061-067>069-081>083-085>088-280600-
SOUTHWEST INDIANA

CITY           SKY/WX    TMP DP  RH WIND       PRES   REMARKS
EVANSVILLE     CLEAR     78  74  87 NE3       30.11S
HUNTINGBURG *+ MOCLDY    75  73  94 CALM      30.13S
WASHINGTON +   CLEAR     73  73 100 MISG      30.12S

$$

INZ062-063-066-070>080-084-089>092-280600-
SOUTH CENTRAL AND SOUTHEAST INDIANA

CITY           SKY/WX    TMP DP  RH WIND       PRES   REMARKS
BLOOMINGTON    PTCLDY    75  72  90 SE3       30.14S
MADISON *+     PTCLDY    73  72  94 CALM      30.17F

$$





USA.gov is the U.S. government's official web portal to all federal, state and local government web resources and services.